This demonstration page uses our WeatherBlox Daily Observations layout. Learn more.

Left ArrowRight Arrow

Hourly Observations for November 23, 2021

Temp ( °F °C ) Dew Point ( °F °C ) Humidity (%) Winds ( mph kmh ) Pressure ( in mb ) Visibility ( mi km ) Precip ( " mm )
12:56 am 00:56 Clear 34 1.1 23 -5 64 64 SSW 7 11 30.05 1018 10 16 0.00 0.00
1:56 am 01:56 Clear 33 0.6 22 -5.6 64 64 S 6 9 30.02 1017 10 16 0.00 0.00
2:56 am 02:56 Clear 30 -1.1 22 -5.6 72 72 Calm 30.01 1016 10 16 0.00 0.00
3:56 am 03:56 Clear 35 1.7 22 -5.6 59 59 SSW 9 15 29.97 1015 10 16 0.00 0.00
4:56 am 04:56 Clear 30 -1.1 22 -5.6 72 72 SSW 8 13 29.96 1015 10 16 0.00 0.00
5:56 am 05:56 Clear 29 -1.7 22 -5.6 75 75 S 9 15 29.95 1014 10 16 0.00 0.00
6:56 am 06:56 Clear 34 1.1 22 -5.6 61 61 SSW 12 19 29.93 1014 10 16 0.00 0.00
7:56 am 07:56 Sunny 35 1.7 23 -5 61 61 SSW 14 22 29.92 1013 10 16 0.00 0.00
8:56 am 08:56 Sunny 41 5 24 -4.4 51 51 SSW 12 19 29.90 1013 10 16 0.00 0.00
9:56 am 09:56 Sunny 53 11.7 24 -4.4 32 32 SSW 17 28 29.86 1011 10 16 0.00 0.00
10:56 am 10:56 Sunny 59 15 23 -5 25 25 SSW 22 35 29.83 1010 10 16 0.00 0.00
11:56 am 11:56 Sunny 61 16.1 25 -3.9 25 25 SSW 23 37 29.78 1008 10 16 0.00 0.00
12:56 pm 12:56 Sunny 65 18.3 26 -3.3 23 23 S 22 35 29.72 1007 10 16 0.00 0.00
1:56 pm 13:56 Sunny 66 18.9 26 -3.3 22 22 S 23 37 29.69 1005 10 16 0.00 0.00
2:56 pm 14:56 Sunny 69 20.6 26 -3.3 20 20 S 23 37 29.63 1004 10 16 0.00 0.00
3:56 pm 15:56 Sunny 69 20.6 27 -2.8 21 21 S 22 35 29.60 1002 10 16 0.00 0.00
4:56 pm 16:56 Sunny 64 17.8 26 -3.3 24 24 S 15 24 29.61 1003 10 16 0.00 0.00
5:56 pm 17:56 Clear 59 15 25 -3.9 27 27 S 18 30 29.62 1003 10 16 0.00 0.00
6:56 pm 18:56 Clear 58 14.4 27 -2.8 31 31 S 14 22 29.60 1002 10 16 0.00 0.00
7:56 pm 19:56 Clear 53 11.7 27 -2.8 37 37 SSE 5 7 29.61 1003 10 16 0.00 0.00
8:56 pm 20:56 Clear 47 8.3 28 -2.2 48 48 S 8 13 29.60 1003 10 16 0.00 0.00
9:56 pm 21:56 Clear 49 9.4 30 -1.1 48 48 S 13 20 29.57 1001 10 16 0.00 0.00
10:56 pm 22:56 Clear 47 8.3 29 -1.7 50 50 S 8 13 29.57 1001 10 16 0.00 0.00
11:56 pm 23:56 Clear 47 8.3 29 -1.7 50 50 SSW 7 11 29.57 1001 10 16 0.00 0.00

Powered by AerisWeather